Showing default

NANOSAT C BR1, 40024

Orbit data source: Space-Track

NANOSAT C BR1, 40024 is a Brazilian payload satellite in SSO that was launched on Thu, 19 Jun 2014 UTC via a DNEPR launch vehicle from the Orenburg, Russia (OREN). Payload-class satellites include a variety of spacecraft equipped with specific instruments for various scientific and technological missions. These include communications satellites like Starlink; space stations such as the ISS; scientific satellites like the Hubble; Earth observation satellites from companies like Planet Labs, Umbra, and HawkEye 360; GPS; miniature CubeSats for education and research; and military/defense satellites.

Loading next visibility...
Identifier
40024, 2014-033Q
Orbit
SSO
Country
Flag of BRBR / BRAZ
Related business
Manufacturer
INPES/UFSM
Mission
Operational Civil Science
Bus & Motor
CUBESAT 1U, Unknown motor
Mass
1 kg wet, 1 kg dry
Launch date (UTC)
2014-06-19 (12 years ago)
Launch vehicle
DNEPR
Launch site
Orenburg, Russia (OREN)
Object type
Payload
Rocket body
Debris
Shape & HBR
Box, 0.1 m
Radar Cross Section
0.015 m², Medium (>0.1 m² and < 1m²)

Expand to show TLE details & history
Last TLE update: 1 day ago

TLE from 1 day ago
0 NANOSAT C BR1
1 40024U 14033Q   26253.33629699  .00014365  00000-0  44003-3 0  9999
2 40024  98.0662 293.4137 0002346 224.0442 136.0612 15.33929282667029
Epoch: 2026-09-10T08:04Z
TLE epoch observation values (Epoch: 2026-09-10T08:04:16.059Z)
Latitude
-0.00006°
Longitude
-177.02867°
Altitude
468.348 km
Speed
7.631 km/s
True Right ascension
19h 33m 39s
True Declination
0° 00' 00"
Sunlit
Object was in full shadow at epoch
Visualization orbit readout
Latitude
Unknown
Longitude
Unknown
Altitude
Unknown
Speed
Unknown
Apparent Right ascension
Unknown
Apparent Declination
Unknown
Sunlit
N/A
Visualization observer readout
Local Sidereal Time
05:07:29
Azimuth
Unknown
Elevation
Unknown
Doppler factor
Unknown
Orbital elements
Apogee altitude
462.684 km
Perigee altitude
459.475 km
Semi-major axis
6,839.217 km
Eccentricity
0.00023
Inclination
98.0662°
RAAN
293.4137°
Arg. of periapsis
224.0442°
True anomaly
136.07985°
Mean anomaly
136.0612°
Eccentric anomaly
136.07053°
Mean motion
3.83737 °/min
Orbital period
93.81 mins
BSTAR
0.00044003
Loading maneuver chart data...
Computing Atmospheric mass density...
Loading historical data...
Loading historical data...
Loading historical data...
Loading historical data...
Loading historical data...
Loading historical data...
Loading historical data...

Documentation

Showing up to 5 results
|